| time (UTC) | temp C | wind direction | speed KPH | gust KPH | rain 1hr cm | rain 24hr cm | rain mn cm | humidity % | barometer mb |
| 20260507113701 | 16 | 48 | 1.6 | 4.8 | 0.03 | 0.03 | 0.03 | 50 | 1006.3 |
| 20260507113001 | 15 | 45 | 0.0 | 9.7 | 0.00 | 0.00 | 0.00 | 47 | 1006.3 |
| 20260507112301 | 16 | 34 | 3.2 | 9.7 | 0.00 | 0.00 | 0.00 | 45 | 1006.3 |
| 20260507110201 | 17 | 67 | 3.2 | 14.5 | 0.00 | 0.00 | 0.00 | 38 | 1006.2 |
| 20260507105501 | 17 | 51 | 8.0 | 14.5 | 0.00 | 0.00 | 0.00 | 35 | 1006.2 |
| 20260507104801 | 17 | 78 | 6.4 | 12.9 | 0.00 | 0.00 | 0.00 | 36 | 1006.3 |
| 20260507103401 | 17 | 70 | 4.8 | 12.9 | 0.00 | 0.00 | 0.00 | 39 | 1006.5 |
| 20260507102701 | 18 | 77 | 4.8 | 19.3 | 0.00 | 0.00 | 0.00 | 35 | 1006.6 |
| 20260507102001 | 18 | 79 | 11.3 | 14.5 | 0.00 | 0.00 | 0.00 | 38 | 1006.6 |
| 20260507101301 | 18 | 54 | 4.8 | 14.5 | 0.00 | 0.00 | 0.00 | 41 | 1006.5 |
| 20260507100602 | 17 | 80 | 1.6 | 17.7 | 0.00 | 0.00 | 0.00 | 43 | 1006.6 |
| 20260507095201 | 16 | 48 | 6.4 | 17.7 | 0.00 | 0.00 | 0.00 | 46 | 1006.6 |
| 20260507093101 | 16 | 64 | 6.4 | 14.5 | 0.00 | 0.00 | 0.00 | 46 | 1007.1 |
| 20260507091702 | 15 | 86 | 8.0 | 16.1 | 0.00 | 0.00 | 0.00 | 49 | 1007.2 |
| 20260507091001 | 15 | 90 | 8.0 | 17.7 | 0.00 | 0.00 | 0.00 | 50 | 1007.4 |
| 20260507090302 | 15 | 90 | 6.4 | 17.7 | 0.00 | 0.00 | 0.00 | 51 | 1007.3 |
| 20260507085601 | 15 | 108 | 9.7 | 14.5 | 0.00 | 0.00 | 0.00 | 53 | 1007.3 |
| 20260507084901 | 14 | 104 | 6.4 | 14.5 | 0.00 | 0.00 | 0.00 | 57 | 1007.2 |
| 20260507084201 | 13 | 113 | 4.8 | 12.9 | 0.00 | 0.00 | 0.00 | 60 | 1007.2 |
| 20260507083501 | 13 | 117 | 4.8 | 11.3 | 0.00 | 0.00 | 0.00 | 64 | 1007.4 |
| 20260507082801 | 12 | 89 | 4.8 | 8.0 | 0.00 | 0.00 | 0.00 | 66 | 1007.3 |
| 20260507082101 | 12 | 101 | 3.2 | 8.0 | 0.00 | 0.00 | 0.00 | 66 | 1007.3 |
| 20260507080701 | 12 | 94 | 4.8 | 11.3 | 0.00 | 0.00 | 0.00 | 67 | 1007.5 |
| 20260507080001 | 12 | 111 | 3.2 | 11.3 | 0.00 | 0.00 | 0.00 | 68 | 1007.5 |
| 20260507074601 | 11 | 99 | 4.8 | 12.9 | 0.00 | 0.00 | 0.00 | 70 | 1007.6 |
| 20260507073901 | 11 | 88 | 4.8 | 12.9 | 0.00 | 0.00 | 0.00 | 71 | 1007.6 |
| 20260507073201 | 11 | 92 | 3.2 | 12.9 | 0.00 | 0.00 | 0.00 | 71 | 1007.6 |
| 20260507071801 | 11 | 79 | 3.2 | 11.3 | 0.00 | 0.00 | 0.00 | 70 | 1007.7 |
| 20260507071101 | 11 | 99 | 6.4 | 11.3 | 0.00 | 0.00 | 0.00 | 72 | 1007.7 |
| 20260507070401 | 11 | 87 | 3.2 | 9.7 | 0.00 | 0.00 | 0.00 | 72 | 1007.6 |
| 20260507065001 | 11 | 83 | 6.4 | 12.9 | 0.00 | 0.00 | 0.00 | 73 | 1007.7 |
| 20260507064302 | 10 | 92 | 4.8 | 9.7 | 0.00 | 0.00 | 0.00 | 75 | 1007.7 |
| 20260507063602 | 10 | 97 | 4.8 | 12.9 | 0.00 | 0.00 | 0.00 | 76 | 1007.6 |
| 20260507062902 | 10 | 90 | 3.2 | 12.9 | 0.00 | 0.00 | 0.00 | 78 | 1007.7 |
| 20260507062202 | 10 | 90 | 6.4 | 9.7 | 0.00 | 0.00 | 0.00 | 80 | 1007.7 |
| 20260507061502 | 9 | 87 | 4.8 | 8.0 | 0.00 | 0.00 | 0.00 | 81 | 1007.7 |
| 20260507060801 | 8 | 90 | 3.2 | 6.4 | 0.00 | 0.00 | 0.00 | 81 | 1007.6 |
| 20260507060101 | 8 | 113 | 0.0 | 4.8 | 0.00 | 0.00 | 0.00 | 80 | 1007.8 |
| 20260507054701 | 8 | 97 | 1.6 | 6.4 | 0.00 | 0.00 | 0.00 | 80 | 1007.7 |
| 20260507054001 | 8 | 90 | 3.2 | 6.4 | 0.00 | 0.00 | 0.00 | 79 | 1007.7 |
| 20260507053301 | 9 | 87 | 3.2 | 6.4 | 0.00 | 0.00 | 0.00 | 79 | 1007.6 |
| 20260507051201 | 9 | 59 | 1.6 | 6.4 | 0.00 | 0.00 | 0.00 | 79 | 1007.6 |
| 20260507050500 | 9 | 76 | 3.2 | 8.0 | 0.00 | 0.00 | 0.00 | 80 | 1007.7 |
| 20260507045800 | 9 | 63 | 3.2 | 8.0 | 0.00 | 0.00 | 0.00 | 80 | 1007.8 |
| 20260507045100 | 9 | 75 | 1.6 | 6.4 | 0.00 | 0.00 | 0.00 | 80 | 1007.7 |
| 20260507044400 | 9 | 75 | 1.6 | 11.3 | 0.00 | 0.00 | 0.00 | 81 | 1007.6 |
| 20260507043700 | 9 | 48 | 1.6 | 11.3 | 0.00 | 0.00 | 0.00 | 81 | 1007.8 |
| 20260507042300 | 9 | 39 | 1.6 | 6.4 | 0.00 | 0.00 | 0.00 | 81 | 1007.8 |
| 20260507041601 | 9 | 66 | 3.2 | 6.4 | 0.00 | 0.00 | 0.00 | 82 | 1007.9 |
| 20260507040901 | 9 | 89 | 0.0 | 4.8 | 0.00 | 0.00 | 0.00 | 82 | 1008.0 |
| 20260507035502 | 8 | 37 | 1.6 | 4.8 | 0.00 | 0.00 | 0.00 | 82 | 1007.9 |
| 20260507034800 | 8 | 66 | 0.0 | 3.2 | 0.00 | 0.00 | 0.00 | 81 | 1008.0 |
| 20260507034100 | 8 | 54 | 1.6 | 4.8 | 0.00 | 0.00 | 0.00 | 82 | 1007.9 |
| 20260507032000 | 9 | 52 | 1.6 | 6.4 | 0.00 | 0.00 | 0.00 | 82 | 1007.9 |
| 20260507031301 | 9 | 67 | 3.2 | 6.4 | 0.00 | 0.00 | 0.00 | 82 | 1008.0 |
| 20260507030601 | 9 | 71 | 3.2 | 9.7 | 0.00 | 0.00 | 0.00 | 82 | 1008.0 |
| 20260507025900 | 9 | 36 | 3.2 | 16.1 | 0.00 | 0.00 | 0.00 | 82 | 1007.9 |
| 20260507025200 | 9 | 36 | 3.2 | 16.1 | 0.00 | 0.00 | 0.00 | 83 | 1007.9 |
| 20260507024500 | 8 | 79 | 3.2 | 6.4 | 0.00 | 0.00 | 0.00 | 85 | 1008.0 |
| 20260507023801 | 8 | 90 | 3.2 | 6.4 | 0.00 | 0.00 | 0.00 | 86 | 1008.0 |
| 20260507022400 | 8 | 97 | 1.6 | 4.8 | 0.00 | 0.00 | 0.00 | 87 | 1008.2 |
| 20260507021700 | 8 | 71 | 1.6 | 4.8 | 0.00 | 0.00 | 0.00 | 87 | 1008.1 |
| 20260507021000 | 8 | 63 | 3.2 | 8.0 | 0.00 | 0.00 | 0.00 | 87 | 1008.0 |
| 20260507020300 | 8 | 62 | 1.6 | 6.4 | 0.00 | 0.00 | 0.00 | 88 | 1008.1 |
| 20260507014900 | 7 | 79 | 3.2 | 8.0 | 0.00 | 0.00 | 0.00 | 89 | 1008.1 |
| 20260507014200 | 7 | 65 | 3.2 | 8.0 | 0.00 | 0.00 | 0.00 | 89 | 1008.0 |
| 20260507013500 | 7 | 79 | 3.2 | 8.0 | 0.00 | 0.00 | 0.00 | 90 | 1008.1 |
| 20260507012801 | 7 | 78 | 3.2 | 6.4 | 0.00 | 0.00 | 0.00 | 89 | 1008.1 |
| 20260507012100 | 7 | 80 | 1.6 | 6.4 | 0.00 | 0.00 | 0.00 | 89 | 1008.4 |
| 20260507011400 | 7 | 88 | 3.2 | 6.4 | 0.00 | 0.00 | 0.00 | 88 | 1008.5 |
| 20260507010001 | 7 | 71 | 3.2 | 6.4 | 0.00 | 0.00 | 0.00 | 88 | 1008.5 |
| 20260507005300 | 7 | 80 | 1.6 | 6.4 | 0.00 | 0.00 | 0.00 | 87 | 1008.6 |
| 20260507004600 | 7 | 74 | 1.6 | 6.4 | 0.00 | 0.00 | 0.00 | 87 | 1008.6 |
| 20260507003900 | 7 | 68 | 1.6 | 6.4 | 0.00 | 0.00 | 0.00 | 86 | 1008.5 |
| 20260507003200 | 7 | 69 | 3.2 | 4.8 | 0.00 | 0.00 | 0.00 | 86 | 1008.6 |
| 20260507002500 | 7 | 78 | 0.0 | 8.0 | 0.00 | 0.00 | 0.00 | 86 | 1008.6 |
| 20260507001800 | 8 | 80 | 4.8 | 9.7 | 0.00 | 0.00 | 0.00 | 87 | 1008.7 |
| 20260506235000 | 8 | 111 | 1.6 | 6.4 | 0.00 | 0.00 | 0.00 | 87 | 1008.6 |
| 20260506234300 | 8 | 122 | 3.2 | 6.4 | 0.00 | 0.00 | 0.00 | 87 | 1008.6 |
| 20260506233601 | 8 | 116 | 1.6 | 3.2 | 0.00 | 0.00 | 0.00 | 86 | 1008.6 |
| 20260506232900 | 8 | 90 | 1.6 | 4.8 | 0.00 | 0.00 | 0.00 | 86 | 1008.6 |
| 20260506232200 | 8 | 120 | 0.0 | 6.4 | 0.00 | 0.00 | 0.00 | 86 | 1008.6 |
| 20260506231500 | 8 | 101 | 1.6 | 4.8 | 0.00 | 0.00 | 0.00 | 84 | 1008.5 |
| 20260506230800 | 8 | 91 | 1.6 | 4.8 | 0.00 | 0.00 | 0.00 | 84 | 1008.5 |
| 20260506230100 | 8 | 117 | 0.0 | 3.2 | 0.00 | 0.00 | 0.00 | 83 | 1008.5 |
| 20260506225400 | 8 | 130 | 1.6 | 3.2 | 0.00 | 0.00 | 0.00 | 82 | 1008.6 |
| 20260506224700 | 8 | 132 | 0.0 | 3.2 | 0.00 | 0.00 | 0.00 | 82 | 1008.5 |
| 20260506224000 | 9 | 130 | 0.0 | 3.2 | 0.00 | 0.00 | 0.00 | 81 | 1008.5 |
| 20260506221901 | 9 | 116 | 0.0 | 3.2 | 0.00 | 0.00 | 0.00 | 79 | 1008.6 |
| 20260506221200 | 10 | 61 | 1.6 | 3.2 | 0.00 | 0.00 | 0.00 | 79 | 1008.7 |
| 20260506215801 | 10 | 37 | 0.0 | 3.2 | 0.00 | 0.00 | 0.00 | 78 | 1008.6 |
| 20260506215100 | 10 | 26 | 0.0 | 3.2 | 0.00 | 0.00 | 0.00 | 78 | 1008.7 |
| 20260506214400 | 10 | 80 | 0.0 | 3.2 | 0.00 | 0.00 | 0.00 | 78 | 1008.8 |
| 20260506213700 | 10 | 124 | 0.0 | 3.2 | 0.00 | 0.00 | 0.00 | 77 | 1008.7 |
| 20260506213000 | 10 | 141 | 1.6 | 3.2 | 0.00 | 0.00 | 0.00 | 77 | 1008.6 |
| 20260506212300 | 10 | 134 | 0.0 | 3.2 | 0.00 | 0.00 | 0.00 | 77 | 1008.6 |
| 20260506211600 | 10 | 158 | 0.0 | 3.2 | 0.00 | 0.00 | 0.00 | 76 | 1008.6 |
| 20260506210900 | 10 | 177 | 0.0 | 3.2 | 0.00 | 0.00 | 0.00 | 74 | 1008.6 |
| 20260506210200 | 10 | 175 | 0.0 | 3.2 | 0.00 | 0.00 | 0.00 | 74 | 1008.5 |
| 20260506205500 | 10 | 181 | 0.0 | 3.2 | 0.00 | 0.00 | 0.00 | 73 | 1008.6 |
| 20260506204800 | 10 | 170 | 1.6 | 3.2 | 0.00 | 0.00 | 0.00 | 72 | 1008.6 |
| 20260506204100 | 11 | 136 | 0.0 | 3.2 | 0.00 | 0.00 | 0.00 | 71 | 1008.4 |
| 20260506203400 | 11 | 131 | 0.0 | 1.6 | 0.00 | 0.00 | 0.00 | 70 | 1008.5 |
| 20260506202000 | 11 | 162 | 0.0 | 3.2 | 0.00 | 0.00 | 0.00 | 67 | 1008.3 |
| 20260506201300 | 11 | 146 | 0.0 | 3.2 | 0.00 | 0.00 | 0.00 | 67 | 1008.1 |
| 20260506200601 | 12 | 139 | 0.0 | 3.2 | 0.00 | 0.00 | 0.00 | 66 | 1008.0 |
| 20260506195900 | 12 | 181 | 0.0 | 3.2 | 0.00 | 0.00 | 0.00 | 65 | 1008.1 |
| 20260506194500 | 12 | 0 | 0.0 | 0.0 | 0.00 | 0.00 | 0.00 | 63 | 1007.9 |
| 20260506193100 | 12 | 245 | 0.0 | 3.2 | 0.00 | 0.00 | 0.00 | 62 | 1007.9 |
| 20260506192400 | 13 | 208 | 0.0 | 3.2 | 0.00 | 0.00 | 0.00 | 59 | 1007.8 |
| 20260506191700 | 13 | 234 | 0.0 | 4.8 | 0.00 | 0.00 | 0.00 | 56 | 1007.8 |
| 20260506191000 | 13 | 263 | 1.6 | 6.4 | 0.00 | 0.00 | 0.00 | 55 | 1007.8 |
| 20260506190300 | 14 | 291 | 3.2 | 8.0 | 0.00 | 0.00 | 0.00 | 50 | 1007.7 |
| 20260506185600 | 14 | 300 | 0.0 | 8.0 | 0.00 | 0.00 | 0.00 | 49 | 1007.6 |
| 20260506184900 | 14 | 300 | 3.2 | 8.0 | 0.00 | 0.00 | 0.00 | 48 | 1007.7 |
| 20260506184200 | 13 | 234 | 0.0 | 9.7 | 0.00 | 0.00 | 0.00 | 46 | 1007.7 |
| 20260506182800 | 13 | 237 | 3.2 | 8.0 | 0.00 | 0.00 | 0.00 | 49 | 1007.7 |
| 20260506180659 | 14 | 271 | 1.6 | 6.4 | 0.00 | 0.00 | 0.00 | 46 | 1007.7 |
| 20260506180000 | 14 | 186 | 0.0 | 9.7 | 0.00 | 0.00 | 0.00 | 44 | 1007.6 |
| 20260506175259 | 15 | 185 | 3.2 | 8.0 | 0.00 | 0.00 | 0.00 | 41 | 1007.6 |
| 20260506173859 | 15 | 230 | 3.2 | 11.3 | 0.00 | 0.00 | 0.00 | 41 | 1007.8 |
| 20260506173159 | 15 | 215 | 4.8 | 12.9 | 0.00 | 0.00 | 0.00 | 42 | 1007.8 |
| 20260506172459 | 15 | 208 | 6.4 | 20.9 | 0.00 | 0.00 | 0.00 | 42 | 1007.8 |
| 20260506171759 | 15 | 212 | 6.4 | 20.9 | 0.00 | 0.00 | 0.00 | 41 | 1007.8 |
| 20260506170359 | 16 | 233 | 3.2 | 16.1 | 0.00 | 0.00 | 0.00 | 36 | 1007.8 |
| 20260506165659 | 16 | 266 | 6.4 | 16.1 | 0.00 | 0.00 | 0.00 | 34 | 1007.6 |
| 20260506164959 | 17 | 279 | 8.0 | 16.1 | 0.00 | 0.00 | 0.00 | 34 | 1007.6 |
| 20260506164259 | 17 | 270 | 3.2 | 12.9 | 0.00 | 0.00 | 0.00 | 30 | 1007.5 |
| 20260506163559 | 17 | 241 | 3.2 | 9.7 | 0.00 | 0.00 | 0.00 | 31 | 1007.8 |
| 20260506162859 | 16 | 232 | 3.2 | 9.7 | 0.00 | 0.03 | 0.00 | 31 | 1007.7 |
| 20260506162159 | 16 | 254 | 4.8 | 12.9 | 0.00 | 0.03 | 0.00 | 31 | 1007.6 |
| 20260506161500 | 17 | 254 | 6.4 | 12.9 | 0.00 | 0.03 | 0.00 | 29 | 1007.6 |
| 20260506160759 | 17 | 250 | 6.4 | 12.9 | 0.00 | 0.03 | 0.00 | 26 | 1007.7 |
| 20260506155359 | 18 | 261 | 3.2 | 14.5 | 0.00 | 0.03 | 0.00 | 30 | 1007.7 |
| 20260506154659 | 17 | 259 | 6.4 | 12.9 | 0.00 | 0.03 | 0.00 | 29 | 1007.7 |
| 20260506153959 | 17 | 262 | 6.4 | 12.9 | 0.00 | 0.03 | 0.00 | 27 | 1007.7 |
| 20260506153301 | 17 | 262 | 3.2 | 9.7 | 0.00 | 0.03 | 0.00 | 27 | 1007.8 |
| 20260506152600 | 18 | 288 | 3.2 | 12.9 | 0.00 | 0.03 | 0.00 | 25 | 1007.9 |
| 20260506151859 | 18 | 268 | 8.0 | 12.9 | 0.00 | 0.03 | 0.00 | 24 | 1007.8 |
| 20260506151200 | 17 | 219 | 3.2 | 12.9 | 0.00 | 0.03 | 0.00 | 27 | 1008.0 |
| 20260506150500 | 17 | 222 | 3.2 | 11.3 | 0.00 | 0.03 | 0.00 | 26 | 1008.1 |
| 20260506145759 | 17 | 231 | 3.2 | 11.3 | 0.00 | 0.03 | 0.00 | 26 | 1008.2 |
| 20260506144359 | 18 | 261 | 3.2 | 12.9 | 0.00 | 0.03 | 0.00 | 23 | 1008.2 |
| 20260506143659 | 18 | 250 | 6.4 | 14.5 | 0.00 | 0.03 | 0.00 | 22 | 1008.1 |
| 20260506142959 | 18 | 202 | 3.2 | 12.9 | 0.00 | 0.03 | 0.00 | 22 | 1008.3 |
| 20260506142259 | 19 | 195 | 6.4 | 12.9 | 0.00 | 0.03 | 0.00 | 22 | 1008.4 |
| 20260506140859 | 17 | 336 | 3.2 | 16.1 | 0.00 | 0.03 | 0.00 | 23 | 1008.6 |
| 20260506135500 | 18 | 241 | 6.4 | 16.1 | 0.00 | 0.03 | 0.00 | 22 | 1008.6 |
| 20260506134800 | 18 | 252 | 1.6 | 12.9 | 0.00 | 0.05 | 0.00 | 22 | 1008.6 |
| 20260506134059 | 18 | 253 | 8.0 | 12.9 | 0.00 | 0.10 | 0.00 | 22 | 1008.7 |
| 20260506133400 | 18 | 235 | 3.2 | 12.9 | 0.00 | 0.10 | 0.00 | 28 | 1008.8 |
| 20260506132659 | 18 | 265 | 6.4 | 12.9 | 0.00 | 0.10 | 0.00 | 25 | 1008.8 |
| 20260506131959 | 17 | 305 | 6.4 | 12.9 | 0.00 | 0.10 | 0.00 | 24 | 1008.8 |
| 20260506131300 | 18 | 299 | 6.4 | 12.9 | 0.00 | 0.10 | 0.00 | 25 | 1008.9 |
| 20260506130559 | 17 | 306 | 4.8 | 12.9 | 0.00 | 0.10 | 0.00 | 25 | 1009.0 |
| 20260506125159 | 17 | 219 | 3.2 | 12.9 | 0.00 | 0.10 | 0.00 | 26 | 1009.1 |
| 20260506124459 | 17 | 282 | 4.8 | 11.3 | 0.00 | 0.10 | 0.00 | 30 | 1009.2 |
| 20260506123800 | 17 | 274 | 4.8 | 12.9 | 0.00 | 0.10 | 0.00 | 30 | 1009.3 |
| 20260506123100 | 17 | 288 | 6.4 | 12.9 | 0.00 | 0.10 | 0.00 | 30 | 1009.4 |
| 20260506122359 | 16 | 305 | 3.2 | 14.5 | 0.00 | 0.10 | 0.00 | 31 | 1009.5 |
| 20260506120959 | 17 | 259 | 6.4 | 12.9 | 0.00 | 0.10 | 0.00 | 29 | 1009.7 |
| 20260506120300 | 16 | 254 | 6.4 | 12.9 | 0.00 | 0.10 | 0.00 | 33 | 1009.8 |